| time (UTC) | temp C | wind direction | speed KPH | gust KPH | rain 1hr cm | rain 24hr cm | rain mn cm | humidity % | barometer mb |
| 20260509054320 | 21 | 269 | 0.0 | 3.2 | 0.00 | 0.74 | 0.00 | 82 | 1010.5 |
| 20260509054221 | 21 | 254 | 3.2 | 3.2 | 0.00 | 0.74 | 0.00 | 82 | 1010.4 |
| 20260509053621 | 21 | 221 | 0.0 | 3.2 | 0.00 | 0.74 | 0.00 | 82 | 1010.7 |
| 20260509053520 | 21 | 325 | 1.6 | 3.2 | 0.00 | 0.74 | 0.00 | 82 | 1010.9 |
| 20260509051320 | 22 | 295 | 1.6 | 4.8 | 0.00 | 0.74 | 0.00 | 81 | 1011.5 |
| 20260509051220 | 22 | 211 | 3.2 | 4.8 | 0.00 | 0.74 | 0.00 | 81 | 1011.5 |
| 20260509050921 | 21 | 266 | 1.6 | 3.2 | 0.00 | 0.74 | 0.00 | 81 | 1011.6 |
| 20260509050820 | 21 | 315 | 1.6 | 4.8 | 0.00 | 0.74 | 0.00 | 81 | 1011.5 |
| 20260509050621 | 21 | 295 | 3.2 | 6.4 | 0.00 | 0.74 | 0.00 | 82 | 1011.5 |
| 20260509050421 | 21 | 293 | 3.2 | 6.4 | 0.00 | 0.74 | 0.00 | 82 | 1011.3 |
| 20260509050320 | 21 | 302 | 3.2 | 3.2 | 0.00 | 0.74 | 0.00 | 82 | 1011.2 |
| 20260509050220 | 21 | 292 | 1.6 | 6.4 | 0.00 | 0.74 | 0.00 | 82 | 1010.9 |
| 20260509050120 | 21 | 343 | 3.2 | 6.4 | 0.00 | 0.74 | 0.00 | 82 | 1010.8 |
| 20260509050021 | 21 | 335 | 1.6 | 1.6 | 0.00 | 0.74 | 0.00 | 82 | 1010.7 |
| 20260509045720 | 21 | 304 | 0.0 | 3.2 | 0.00 | 0.74 | 0.79 | 81 | 1010.3 |
| 20260509045620 | 21 | 299 | 1.6 | 3.2 | 0.00 | 0.74 | 0.79 | 81 | 1010.4 |
| 20260509044720 | 21 | 224 | 0.0 | 3.2 | 0.00 | 0.74 | 0.79 | 81 | 1010.1 |
| 20260509044620 | 21 | 213 | 1.6 | 3.2 | 0.00 | 0.74 | 0.79 | 81 | 1009.9 |
| 20260509044020 | 21 | 155 | 0.0 | 1.6 | 0.00 | 0.74 | 0.79 | 80 | 1009.7 |
| 20260509043920 | 21 | 136 | 1.6 | 1.6 | 0.00 | 0.74 | 0.79 | 80 | 1009.7 |
| 20260509043120 | 21 | 180 | 0.0 | 3.2 | 0.00 | 0.74 | 0.79 | 79 | 1009.6 |
| 20260509042520 | 22 | 200 | 1.6 | 3.2 | 0.00 | 0.74 | 0.79 | 79 | 1009.7 |
| 20260509042421 | 22 | 192 | 3.2 | 3.2 | 0.00 | 0.74 | 0.79 | 79 | 1009.9 |
| 20260509041820 | 22 | 206 | 0.0 | 3.2 | 0.00 | 0.74 | 0.79 | 78 | 1009.7 |
| 20260509041720 | 22 | 22 | 1.6 | 6.4 | 0.00 | 0.74 | 0.79 | 78 | 1009.7 |
| 20260509041420 | 22 | 85 | 3.2 | 4.8 | 0.00 | 0.74 | 0.79 | 78 | 1009.5 |
| 20260509040921 | 22 | 310 | 0.0 | 3.2 | 0.00 | 0.74 | 0.79 | 78 | 1009.8 |
| 20260509040820 | 22 | 173 | 1.6 | 1.6 | 0.00 | 0.74 | 0.79 | 78 | 1009.5 |
| 20260509040720 | 22 | 32 | 0.0 | 3.2 | 0.00 | 0.74 | 0.79 | 78 | 1009.7 |
| 20260509040620 | 22 | 7 | 1.6 | 4.8 | 0.00 | 0.74 | 0.79 | 78 | 1009.5 |
| 20260509040423 | 22 | 26 | 0.0 | 3.2 | 0.00 | 0.74 | 0.79 | 78 | 1009.4 |
| 20260509040325 | 22 | 55 | 1.6 | 3.2 | 0.00 | 0.74 | 0.79 | 77 | 1009.4 |
| 20260509035720 | 22 | 339 | 0.0 | 3.2 | 0.00 | 0.74 | 0.79 | 77 | 1009.7 |
| 20260509035420 | 22 | 172 | 1.6 | 1.6 | 0.00 | 0.74 | 0.79 | 77 | 1009.8 |
| 20260509034020 | 22 | 93 | 1.6 | 1.6 | 0.00 | 0.74 | 0.79 | 77 | 1010.5 |
| 20260509031321 | 22 | 135 | 0.0 | 3.2 | 0.00 | 0.74 | 0.79 | 77 | 1010.0 |
| 20260509031220 | 22 | 193 | 1.6 | 6.4 | 0.00 | 0.74 | 0.79 | 77 | 1010.2 |
| 20260509025220 | 22 | 318 | 0.0 | 3.2 | 0.00 | 0.74 | 0.79 | 78 | 1009.6 |
| 20260509025119 | 22 | 248 | 1.6 | 3.2 | 0.00 | 0.74 | 0.79 | 78 | 1009.6 |
| 20260509024020 | 22 | 42 | 1.6 | 1.6 | 0.00 | 0.74 | 0.79 | 78 | 1009.3 |
| 20260509023520 | 22 | 212 | 0.0 | 4.8 | 0.00 | 0.74 | 0.79 | 78 | 1009.0 |
| 20260509023420 | 22 | 142 | 3.2 | 4.8 | 0.00 | 0.74 | 0.79 | 77 | 1009.1 |
| 20260509023320 | 22 | 119 | 3.2 | 4.8 | 0.00 | 0.74 | 0.79 | 77 | 1008.9 |
| 20260509023020 | 22 | 51 | 1.6 | 1.6 | 0.00 | 0.74 | 0.79 | 77 | 1009.0 |
| 20260509022820 | 22 | 9 | 0.0 | 3.2 | 0.00 | 0.74 | 0.79 | 77 | 1008.7 |
| 20260509022521 | 22 | 249 | 3.2 | 3.2 | 0.00 | 0.74 | 0.79 | 77 | 1008.9 |
| 20260509022420 | 22 | 34 | 0.0 | 3.2 | 0.00 | 0.74 | 0.79 | 77 | 1008.6 |
| 20260509022321 | 22 | 184 | 3.2 | 4.8 | 0.00 | 0.74 | 0.79 | 77 | 1008.9 |
| 20260509021721 | 22 | 47 | 0.0 | 4.8 | 0.00 | 0.74 | 0.79 | 77 | 1008.5 |
| 20260509021621 | 22 | 127 | 4.8 | 4.8 | 0.00 | 0.74 | 0.79 | 77 | 1008.7 |
| 20260509021521 | 22 | 107 | 1.6 | 3.2 | 0.00 | 0.74 | 0.79 | 77 | 1008.5 |
| 20260509021320 | 22 | 10 | 0.0 | 8.0 | 0.00 | 0.74 | 0.79 | 77 | 1008.4 |
| 20260509021220 | 22 | 19 | 3.2 | 4.8 | 0.00 | 0.74 | 0.79 | 77 | 1008.4 |
| 20260509020721 | 22 | 208 | 3.2 | 3.2 | 0.00 | 0.74 | 0.79 | 77 | 1008.6 |
| 20260509020520 | 22 | 66 | 0.0 | 3.2 | 0.00 | 0.74 | 0.79 | 77 | 1008.8 |
| 20260509020420 | 22 | 204 | 3.2 | 3.2 | 0.00 | 0.74 | 0.79 | 77 | 1008.6 |
| 20260509020320 | 22 | 128 | 1.6 | 3.2 | 0.00 | 0.74 | 0.79 | 77 | 1008.6 |
| 20260509015720 | 22 | 65 | 0.0 | 3.2 | 0.00 | 0.74 | 0.79 | 76 | 1008.7 |
| 20260509015620 | 22 | 296 | 1.6 | 3.2 | 0.00 | 0.74 | 0.79 | 76 | 1008.8 |
| 20260509015520 | 22 | 160 | 0.0 | 3.2 | 0.00 | 0.74 | 0.79 | 76 | 1008.6 |
| 20260509015419 | 22 | 37 | 1.6 | 3.2 | 0.00 | 0.74 | 0.79 | 76 | 1008.4 |
| 20260509015220 | 22 | 54 | 0.0 | 3.2 | 0.00 | 0.74 | 0.79 | 76 | 1008.6 |
| 20260509015019 | 22 | 130 | 0.0 | 3.2 | 0.00 | 0.74 | 0.79 | 76 | 1008.9 |
| 20260509014719 | 22 | 157 | 1.6 | 3.2 | 0.00 | 0.74 | 0.79 | 76 | 1008.8 |
| 20260509014420 | 22 | 200 | 0.0 | 3.2 | 0.00 | 0.74 | 0.79 | 75 | 1008.6 |
| 20260509014320 | 22 | 43 | 3.2 | 4.8 | 0.00 | 0.74 | 0.79 | 75 | 1008.5 |
| 20260509013820 | 22 | 135 | 0.0 | 3.2 | 0.00 | 0.74 | 0.79 | 75 | 1008.5 |
| 20260509013720 | 22 | 87 | 3.2 | 3.2 | 0.00 | 0.74 | 0.79 | 75 | 1008.3 |
| 20260509013320 | 22 | 198 | 0.0 | 1.6 | 0.00 | 0.74 | 0.79 | 75 | 1008.4 |
| 20260509013220 | 22 | 179 | 1.6 | 1.6 | 0.00 | 0.74 | 0.79 | 75 | 1008.6 |
| 20260509012121 | 22 | 51 | 3.2 | 3.2 | 0.00 | 0.74 | 0.79 | 74 | 1008.5 |
| 20260509012021 | 22 | 122 | 0.0 | 3.2 | 0.00 | 0.74 | 0.79 | 74 | 1008.7 |
| 20260509011920 | 22 | 184 | 3.2 | 3.2 | 0.00 | 0.74 | 0.79 | 74 | 1008.7 |
| 20260509011821 | 22 | 186 | 0.0 | 1.6 | 0.00 | 0.74 | 0.79 | 74 | 1008.7 |
| 20260509011720 | 22 | 207 | 1.6 | 1.6 | 0.00 | 0.74 | 0.79 | 74 | 1008.5 |
| 20260509011620 | 22 | 13 | 0.0 | 3.2 | 0.00 | 0.74 | 0.79 | 74 | 1008.5 |
| 20260509011520 | 22 | 190 | 3.2 | 3.2 | 0.00 | 0.74 | 0.79 | 74 | 1008.5 |
| 20260509010721 | 22 | 309 | 0.0 | 3.2 | 0.00 | 0.74 | 0.79 | 73 | 1008.3 |
| 20260509010521 | 22 | 352 | 1.6 | 1.6 | 0.00 | 0.74 | 0.79 | 73 | 1008.5 |
| 20260509010420 | 22 | 175 | 0.0 | 1.6 | 0.00 | 0.74 | 0.79 | 73 | 1008.4 |
| 20260509010320 | 22 | 39 | 1.6 | 3.2 | 0.00 | 0.74 | 0.79 | 73 | 1008.6 |
| 20260509010219 | 22 | 177 | 0.0 | 3.2 | 0.00 | 0.74 | 0.79 | 73 | 1008.4 |
| 20260509005919 | 23 | 240 | 1.6 | 3.2 | 0.00 | 0.74 | 0.79 | 72 | 1008.4 |
| 20260509005720 | 23 | 147 | 0.0 | 4.8 | 0.00 | 0.74 | 0.79 | 72 | 1008.3 |
| 20260509005620 | 23 | 293 | 1.6 | 3.2 | 0.00 | 0.74 | 0.79 | 72 | 1008.3 |
| 20260509005520 | 23 | 210 | 0.0 | 3.2 | 0.00 | 0.74 | 0.79 | 72 | 1008.2 |
| 20260509005419 | 23 | 158 | 1.6 | 3.2 | 0.00 | 0.74 | 0.79 | 72 | 1008.2 |
| 20260509004819 | 23 | 89 | 0.0 | 3.2 | 0.00 | 0.74 | 0.79 | 71 | 1008.3 |
| 20260509004719 | 23 | 44 | 1.6 | 3.2 | 0.00 | 0.74 | 0.79 | 71 | 1008.0 |
| 20260509004219 | 23 | 202 | 0.0 | 1.6 | 0.00 | 0.74 | 0.79 | 71 | 1007.8 |
| 20260509004120 | 23 | 92 | 1.6 | 3.2 | 0.00 | 0.74 | 0.79 | 70 | 1007.9 |
| 20260509003719 | 23 | 75 | 0.0 | 6.4 | 0.00 | 0.74 | 0.79 | 70 | 1007.9 |
| 20260509003620 | 23 | 55 | 3.2 | 6.4 | 0.00 | 0.74 | 0.79 | 70 | 1007.8 |
| 20260509002920 | 23 | 171 | 0.0 | 4.8 | 0.00 | 0.74 | 0.79 | 70 | 1007.6 |
| 20260509002619 | 23 | 48 | 0.0 | 4.8 | 0.00 | 0.74 | 0.79 | 69 | 1007.6 |
| 20260509002219 | 23 | 258 | 1.6 | 3.2 | 0.00 | 0.74 | 0.79 | 69 | 1007.6 |
| 20260509002119 | 23 | 158 | 0.0 | 3.2 | 0.00 | 0.74 | 0.79 | 69 | 1007.8 |
| 20260509001820 | 23 | 61 | 3.2 | 3.2 | 0.00 | 0.74 | 0.79 | 69 | 1007.8 |
| 20260509001720 | 23 | 75 | 1.6 | 3.2 | 0.00 | 0.74 | 0.79 | 69 | 1007.8 |
| 20260509000919 | 23 | 194 | 3.2 | 4.8 | 0.00 | 0.74 | 0.79 | 69 | 1007.9 |
| 20260509000819 | 23 | 130 | 0.0 | 6.4 | 0.00 | 0.74 | 0.79 | 69 | 1007.8 |
| 20260509000719 | 23 | 288 | 3.2 | 6.4 | 0.00 | 0.74 | 0.79 | 69 | 1007.8 |
| 20260509000419 | 23 | 94 | 3.2 | 4.8 | 0.00 | 0.74 | 0.79 | 69 | 1007.6 |
| 20260509000319 | 23 | 191 | 0.0 | 4.8 | 0.00 | 0.74 | 0.79 | 68 | 1007.6 |
| 20260509000219 | 23 | 133 | 1.6 | 6.4 | 0.00 | 0.74 | 0.79 | 68 | 1007.7 |
| 20260509000119 | 23 | 168 | 0.0 | 6.4 | 0.00 | 0.74 | 0.79 | 68 | 1007.9 |
| 20260509000020 | 23 | 96 | 4.8 | 6.4 | 0.00 | 0.74 | 0.79 | 68 | 1007.7 |
| 20260508235920 | 23 | 89 | 3.2 | 3.2 | 0.00 | 0.74 | 0.79 | 68 | 1008.0 |
| 20260508235819 | 23 | 70 | 0.0 | 8.0 | 0.00 | 0.74 | 0.79 | 68 | 1007.7 |
| 20260508235720 | 23 | 41 | 3.2 | 8.0 | 0.00 | 0.74 | 0.79 | 68 | 1007.7 |
| 20260508235519 | 23 | 67 | 1.6 | 3.2 | 0.00 | 0.74 | 0.79 | 68 | 1008.0 |
| 20260508235319 | 23 | 191 | 3.2 | 3.2 | 0.00 | 0.74 | 0.79 | 68 | 1007.8 |
| 20260508235220 | 23 | 322 | 1.6 | 1.6 | 0.00 | 0.74 | 0.79 | 68 | 1007.9 |
| 20260508235020 | 23 | 185 | 0.0 | 3.2 | 0.00 | 0.74 | 0.79 | 68 | 1008.1 |
| 20260508234820 | 23 | 299 | 1.6 | 4.8 | 0.00 | 0.74 | 0.79 | 68 | 1007.9 |
| 20260508233820 | 23 | 21 | 0.0 | 6.4 | 0.00 | 0.74 | 0.79 | 68 | 1008.1 |
| 20260508233720 | 23 | 59 | 1.6 | 6.4 | 0.00 | 0.74 | 0.79 | 68 | 1008.1 |
| 20260508233620 | 23 | 159 | 3.2 | 4.8 | 0.00 | 0.74 | 0.79 | 68 | 1008.2 |
| 20260508233320 | 23 | 102 | 3.2 | 4.8 | 0.00 | 0.74 | 0.79 | 67 | 1008.4 |
| 20260508232920 | 23 | 222 | 0.0 | 4.8 | 0.00 | 0.74 | 0.79 | 66 | 1008.2 |
| 20260508232819 | 23 | 196 | 1.6 | 6.4 | 0.00 | 0.74 | 0.79 | 66 | 1008.2 |
| 20260508232720 | 23 | 188 | 4.8 | 6.4 | 0.00 | 0.74 | 0.79 | 66 | 1008.2 |
| 20260508232620 | 23 | 177 | 3.2 | 6.4 | 0.00 | 0.74 | 0.79 | 66 | 1008.2 |
| 20260508232519 | 23 | 280 | 0.0 | 4.8 | 0.00 | 0.74 | 0.79 | 66 | 1008.2 |
| 20260508232419 | 23 | 83 | 3.2 | 4.8 | 0.00 | 0.74 | 0.79 | 66 | 1008.2 |
| 20260508232320 | 23 | 123 | 0.0 | 4.8 | 0.00 | 0.74 | 0.79 | 66 | 1008.1 |
| 20260508232219 | 23 | 27 | 1.6 | 6.4 | 0.00 | 0.74 | 0.79 | 66 | 1008.3 |
| 20260508232020 | 24 | 159 | 3.2 | 6.4 | 0.00 | 0.74 | 0.79 | 66 | 1008.1 |
| 20260508231920 | 24 | 57 | 4.8 | 6.4 | 0.00 | 0.74 | 0.79 | 66 | 1008.4 |
| 20260508231820 | 24 | 194 | 1.6 | 4.8 | 0.00 | 0.74 | 0.79 | 65 | 1008.4 |
| 20260508231520 | 24 | 85 | 3.2 | 6.4 | 0.00 | 0.74 | 0.79 | 65 | 1008.1 |
| 20260508231220 | 24 | 195 | 0.0 | 6.4 | 0.00 | 0.74 | 0.79 | 65 | 1008.2 |
| 20260508231123 | 24 | 167 | 6.4 | 6.4 | 0.00 | 0.74 | 0.79 | 65 | 1008.3 |
| 20260508230720 | 24 | 160 | 1.6 | 6.4 | 0.00 | 0.74 | 0.79 | 65 | 1008.2 |
| 20260508230620 | 24 | 70 | 3.2 | 6.4 | 0.00 | 0.74 | 0.79 | 64 | 1008.2 |
| 20260508230520 | 24 | 229 | 0.0 | 3.2 | 0.00 | 0.74 | 0.79 | 64 | 1008.1 |
| 20260508230420 | 24 | 181 | 3.2 | 3.2 | 0.00 | 0.74 | 0.79 | 64 | 1008.3 |
| 20260508230019 | 25 | 166 | 0.0 | 3.2 | 0.00 | 0.74 | 0.79 | 64 | 1008.5 |
| 20260508225719 | 25 | 245 | 1.6 | 3.2 | 0.00 | 0.74 | 0.79 | 63 | 1008.3 |
| 20260508225520 | 25 | 232 | 0.0 | 3.2 | 0.00 | 0.74 | 0.79 | 63 | 1008.4 |
| 20260508225220 | 25 | 39 | 1.6 | 4.8 | 0.00 | 0.74 | 0.79 | 63 | 1008.3 |
| 20260508225019 | 25 | 232 | 3.2 | 4.8 | 0.00 | 0.74 | 0.79 | 64 | 1008.3 |
| 20260508224819 | 25 | 282 | 1.6 | 3.2 | 0.00 | 0.74 | 0.79 | 64 | 1008.2 |
| 20260508224719 | 25 | 275 | 1.6 | 3.2 | 0.00 | 0.74 | 0.79 | 65 | 1008.1 |
| 20260508223921 | 25 | 57 | 3.2 | 3.2 | 0.00 | 0.74 | 0.79 | 64 | 1008.2 |
| 20260508223820 | 25 | 356 | 0.0 | 6.4 | 0.00 | 0.74 | 0.79 | 64 | 1008.1 |
| 20260508223720 | 25 | 176 | 3.2 | 6.4 | 0.00 | 0.74 | 0.79 | 64 | 1008.1 |
| 20260508223619 | 25 | 237 | 0.0 | 6.4 | 0.00 | 0.74 | 0.79 | 64 | 1008.2 |
| 20260508223520 | 25 | 236 | 1.6 | 6.4 | 0.00 | 0.74 | 0.79 | 64 | 1008.3 |
| 20260508223319 | 25 | 259 | 0.0 | 6.4 | 0.00 | 0.74 | 0.79 | 63 | 1008.2 |
| 20260508223220 | 25 | 180 | 3.2 | 4.8 | 0.00 | 0.74 | 0.79 | 64 | 1008.2 |
| 20260508223019 | 25 | 292 | 1.6 | 3.2 | 0.00 | 0.74 | 0.79 | 64 | 1008.4 |
| 20260508222920 | 25 | 251 | 3.2 | 3.2 | 0.00 | 0.74 | 0.79 | 64 | 1008.2 |
| 20260508222619 | 25 | 185 | 0.0 | 6.4 | 0.00 | 0.74 | 0.79 | 63 | 1008.3 |
| 20260508222520 | 25 | 206 | 1.6 | 6.4 | 0.00 | 0.74 | 0.79 | 63 | 1008.0 |
| 20260508222420 | 25 | 263 | 1.6 | 4.8 | 0.00 | 0.74 | 0.79 | 63 | 1008.1 |
| 20260508222320 | 25 | 353 | 0.0 | 4.8 | 0.00 | 0.74 | 0.79 | 63 | 1008.0 |
| 20260508222220 | 25 | 44 | 3.2 | 4.8 | 0.00 | 0.74 | 0.79 | 63 | 1008.1 |
| 20260508222120 | 25 | 215 | 4.8 | 4.8 | 0.00 | 0.74 | 0.79 | 63 | 1008.2 |
| 20260508222020 | 25 | 255 | 0.0 | 4.8 | 0.00 | 0.74 | 0.79 | 63 | 1008.2 |
| 20260508221919 | 25 | 143 | 1.6 | 4.8 | 0.00 | 0.74 | 0.79 | 63 | 1008.0 |
| 20260508221819 | 25 | 200 | 3.2 | 6.4 | 0.00 | 0.74 | 0.79 | 63 | 1008.0 |
| 20260508221720 | 25 | 297 | 3.2 | 6.4 | 0.00 | 0.74 | 0.79 | 62 | 1008.0 |
| 20260508221419 | 25 | 53 | 0.0 | 6.4 | 0.00 | 0.74 | 0.79 | 62 | 1007.9 |
| 20260508221320 | 25 | 114 | 3.2 | 6.4 | 0.00 | 0.74 | 0.79 | 62 | 1007.9 |
| 20260508221219 | 25 | 323 | 1.6 | 4.8 | 0.00 | 0.74 | 0.79 | 62 | 1007.9 |
| 20260508221119 | 26 | 203 | 3.2 | 4.8 | 0.00 | 0.74 | 0.79 | 62 | 1007.9 |
| 20260508220820 | 26 | 341 | 0.0 | 4.8 | 0.00 | 0.74 | 0.79 | 61 | 1008.0 |
| 20260508220719 | 26 | 271 | 1.6 | 9.7 | 0.00 | 0.74 | 0.79 | 60 | 1007.7 |
| 20260508220619 | 26 | 220 | 3.2 | 9.7 | 0.00 | 0.74 | 0.79 | 60 | 1008.1 |
| 20260508220419 | 26 | 110 | 1.6 | 3.2 | 0.00 | 0.74 | 0.79 | 60 | 1007.9 |
| 20260508220120 | 26 | 241 | 1.6 | 3.2 | 0.00 | 0.74 | 0.79 | 60 | 1007.9 |
| 20260508215819 | 26 | 74 | 3.2 | 3.2 | 0.00 | 0.74 | 0.79 | 60 | 1008.0 |
| 20260508215720 | 26 | 271 | 1.6 | 6.4 | 0.00 | 0.74 | 0.79 | 60 | 1007.9 |
| 20260508215619 | 26 | 10 | 3.2 | 6.4 | 0.00 | 0.74 | 0.79 | 60 | 1008.0 |
| 20260508215519 | 26 | 223 | 3.2 | 3.2 | 0.00 | 0.74 | 0.79 | 60 | 1007.9 |
| 20260508215219 | 26 | 261 | 0.0 | 3.2 | 0.00 | 0.74 | 0.79 | 60 | 1007.9 |
| 20260508215019 | 26 | 217 | 1.6 | 3.2 | 0.00 | 0.74 | 0.79 | 61 | 1008.0 |
| 20260508214920 | 26 | 288 | 0.0 | 4.8 | 0.00 | 0.74 | 0.79 | 61 | 1008.1 |
| 20260508214819 | 26 | 251 | 1.6 | 6.4 | 0.00 | 0.74 | 0.79 | 61 | 1007.8 |
| 20260508214520 | 26 | 29 | 3.2 | 4.8 | 0.00 | 0.74 | 0.79 | 60 | 1007.9 |
| 20260508214419 | 26 | 121 | 0.0 | 6.4 | 0.00 | 0.74 | 0.79 | 60 | 1007.7 |
| 20260508214320 | 26 | 180 | 1.6 | 6.4 | 0.00 | 0.74 | 0.79 | 60 | 1008.0 |
| 20260508214220 | 26 | 241 | 1.6 | 4.8 | 0.00 | 0.74 | 0.79 | 61 | 1008.0 |
| 20260508214120 | 26 | 359 | 1.6 | 4.8 | 0.00 | 0.74 | 0.79 | 60 | 1007.9 |
| 20260508214019 | 26 | 11 | 3.2 | 6.4 | 0.00 | 0.74 | 0.79 | 60 | 1008.0 |
| 20260508213920 | 26 | 200 | 6.4 | 6.4 | 0.00 | 0.74 | 0.79 | 60 | 1008.3 |
| 20260508213820 | 26 | 225 | 3.2 | 4.8 | 0.00 | 0.74 | 0.79 | 60 | 1008.2 |
| 20260508213619 | 26 | 76 | 1.6 | 6.4 | 0.00 | 0.74 | 0.79 | 59 | 1008.0 |
| 20260508213419 | 26 | 26 | 0.0 | 3.2 | 0.00 | 0.74 | 0.79 | 60 | 1007.9 |
| 20260508213320 | 26 | 189 | 3.2 | 3.2 | 0.00 | 0.74 | 0.79 | 61 | 1008.0 |
| 20260508212919 | 25 | 203 | 1.6 | 4.8 | 0.00 | 0.74 | 0.79 | 60 | 1007.9 |
| 20260508212720 | 25 | 240 | 0.0 | 4.8 | 0.00 | 0.74 | 0.79 | 61 | 1007.9 |
| 20260508212620 | 25 | 165 | 1.6 | 3.2 | 0.00 | 0.74 | 0.79 | 61 | 1008.2 |
| 20260508212519 | 25 | 217 | 0.0 | 3.2 | 0.00 | 0.74 | 0.79 | 61 | 1008.0 |
| 20260508212419 | 25 | 225 | 3.2 | 4.8 | 0.00 | 0.74 | 0.79 | 60 | 1008.2 |
| 20260508212320 | 25 | 295 | 1.6 | 4.8 | 0.00 | 0.74 | 0.79 | 61 | 1008.3 |
| 20260508212220 | 25 | 326 | 0.0 | 6.4 | 0.00 | 0.74 | 0.79 | 61 | 1008.3 |
| 20260508212019 | 25 | 75 | 3.2 | 6.4 | 0.00 | 0.74 | 0.79 | 60 | 1008.1 |
| 20260508211919 | 25 | 145 | 3.2 | 6.4 | 0.00 | 0.74 | 0.79 | 61 | 1008.2 |
| 20260508210819 | 25 | 161 | 0.0 | 4.8 | 0.00 | 0.74 | 0.79 | 61 | 1008.4 |
| 20260508210719 | 25 | 238 | 3.2 | 6.4 | 0.00 | 0.74 | 0.79 | 60 | 1008.6 |
| 20260508210620 | 25 | 98 | 3.2 | 6.4 | 0.00 | 0.74 | 0.79 | 61 | 1008.6 |
| 20260508210519 | 25 | 328 | 1.6 | 3.2 | 0.00 | 0.74 | 0.79 | 61 | 1008.6 |
| 20260508210321 | 25 | 49 | 0.0 | 6.4 | 0.00 | 0.74 | 0.79 | 61 | 1008.8 |
| 20260508210220 | 25 | 157 | 1.6 | 4.8 | 0.00 | 0.74 | 0.79 | 61 | 1008.8 |
| 20260508210120 | 25 | 206 | 3.2 | 4.8 | 0.00 | 0.74 | 0.79 | 62 | 1008.7 |
| 20260508210020 | 25 | 203 | 4.8 | 4.8 | 0.00 | 0.74 | 0.79 | 62 | 1008.6 |
| 20260508205720 | 25 | 249 | 4.8 | 6.4 | 0.00 | 0.74 | 0.79 | 63 | 1008.9 |
| 20260508205620 | 24 | 205 | 1.6 | 4.8 | 0.00 | 0.74 | 0.79 | 63 | 1009.1 |
| 20260508205520 | 24 | 208 | 3.2 | 4.8 | 0.00 | 0.74 | 0.79 | 63 | 1009.1 |
| 20260508205421 | 24 | 151 | 3.2 | 4.8 | 0.00 | 0.74 | 0.79 | 63 | 1009.0 |
| 20260508205321 | 24 | 234 | 3.2 | 3.2 | 0.00 | 0.74 | 0.79 | 64 | 1009.3 |
| 20260508205121 | 24 | 215 | 0.0 | 4.8 | 0.00 | 0.74 | 0.79 | 63 | 1009.5 |
| 20260508204620 | 23 | 11 | 1.6 | 4.8 | 0.00 | 0.74 | 0.79 | 64 | 1009.5 |
| 20260508204320 | 23 | 232 | 0.0 | 4.8 | 0.00 | 0.74 | 0.79 | 64 | 1009.7 |
| 20260508204220 | 24 | 156 | 1.6 | 4.8 | 0.00 | 0.74 | 0.79 | 64 | 1010.0 |
| 20260508203920 | 24 | 310 | 3.2 | 6.4 | 0.00 | 0.74 | 0.79 | 63 | 1010.0 |
| 20260508203820 | 24 | 222 | 0.0 | 6.4 | 0.00 | 0.74 | 0.79 | 63 | 1010.0 |
| 20260508203521 | 24 | 83 | 6.4 | 6.4 | 0.00 | 0.74 | 0.79 | 63 | 1009.8 |
| 20260508203320 | 24 | 182 | 0.0 | 6.4 | 0.00 | 0.74 | 0.79 | 62 | 1010.1 |
| 20260508203221 | 24 | 249 | 3.2 | 6.4 | 0.00 | 0.74 | 0.79 | 62 | 1010.1 |
| 20260508203120 | 24 | 204 | 6.4 | 6.4 | 0.00 | 0.74 | 0.79 | 62 | 1010.2 |
| 20260508203020 | 24 | 191 | 0.0 | 6.4 | 0.00 | 0.74 | 0.79 | 62 | 1010.1 |
| 20260508202920 | 24 | 190 | 3.2 | 4.8 | 0.00 | 0.74 | 0.79 | 62 | 1010.1 |
| 20260508202821 | 25 | 214 | 1.6 | 4.8 | 0.00 | 0.74 | 0.79 | 62 | 1010.1 |
| 20260508202720 | 25 | 110 | 0.0 | 4.8 | 0.00 | 0.74 | 0.79 | 61 | 1010.3 |
| 20260508202420 | 25 | 197 | 3.2 | 6.4 | 0.00 | 0.74 | 0.79 | 61 | 1010.2 |
| 20260508202321 | 25 | 185 | 3.2 | 3.2 | 0.00 | 0.74 | 0.79 | 61 | 1010.2 |
| 20260508201620 | 25 | 242 | 0.0 | 3.2 | 0.00 | 0.74 | 0.79 | 61 | 1010.3 |
| 20260508201520 | 25 | 142 | 1.6 | 3.2 | 0.00 | 0.74 | 0.79 | 61 | 1010.0 |
| 20260508201421 | 25 | 201 | 0.0 | 4.8 | 0.00 | 0.74 | 0.79 | 61 | 1010.0 |
| 20260508201321 | 25 | 336 | 3.2 | 3.2 | 0.00 | 0.74 | 0.79 | 61 | 1010.2 |
| 20260508201021 | 25 | 182 | 3.2 | 4.8 | 0.00 | 0.74 | 0.79 | 60 | 1010.0 |
| 20260508200921 | 25 | 159 | 0.0 | 4.8 | 0.00 | 0.74 | 0.79 | 60 | 1010.1 |
| 20260508200821 | 25 | 194 | 3.2 | 4.8 | 0.00 | 0.74 | 0.79 | 60 | 1010.1 |
| 20260508200020 | 25 | 154 | 0.0 | 3.2 | 0.00 | 0.74 | 0.79 | 61 | 1010.0 |
| 20260508195920 | 25 | 243 | 1.6 | 3.2 | 0.00 | 0.74 | 0.79 | 60 | 1010.2 |
| 20260508195820 | 25 | 224 | 3.2 | 4.8 | 0.00 | 0.74 | 0.79 | 60 | 1010.1 |
| 20260508195520 | 25 | 211 | 0.0 | 4.8 | 0.00 | 0.74 | 0.79 | 60 | 1010.1 |
| 20260508195420 | 25 | 180 | 1.6 | 6.4 | 0.00 | 0.74 | 0.79 | 60 | 1010.0 |
| 20260508195320 | 25 | 203 | 1.6 | 6.4 | 0.00 | 0.74 | 0.79 | 60 | 1010.1 |
| 20260508195220 | 25 | 237 | 3.2 | 4.8 | 0.00 | 0.74 | 0.79 | 60 | 1010.1 |
| 20260508194920 | 25 | 249 | 0.0 | 6.4 | 0.00 | 0.74 | 0.79 | 59 | 1010.0 |
| 20260508194820 | 25 | 201 | 3.2 | 6.4 | 0.00 | 0.74 | 0.79 | 60 | 1010.1 |
| 20260508194720 | 25 | 342 | 1.6 | 8.0 | 0.00 | 0.74 | 0.79 | 59 | 1010.1 |
| 20260508194621 | 25 | 269 | 8.0 | 8.0 | 0.00 | 0.74 | 0.79 | 59 | 1010.0 |
| 20260508194520 | 25 | 203 | 3.2 | 4.8 | 0.00 | 0.74 | 0.79 | 60 | 1009.9 |
| 20260508194420 | 25 | 219 | 0.0 | 3.2 | 0.00 | 0.74 | 0.79 | 60 | 1010.0 |
| 20260508194321 | 25 | 280 | 1.6 | 4.8 | 0.00 | 0.74 | 0.79 | 59 | 1010.0 |
| 20260508194220 | 25 | 217 | 0.0 | 4.8 | 0.00 | 0.74 | 0.79 | 59 | 1010.1 |
| 20260508194121 | 26 | 184 | 3.2 | 4.8 | 0.00 | 0.74 | 0.79 | 59 | 1010.2 |
| 20260508194021 | 26 | 256 | 0.0 | 4.8 | 0.00 | 0.74 | 0.79 | 59 | 1010.3 |
| 20260508193920 | 26 | 217 | 3.2 | 4.8 | 0.00 | 0.74 | 0.79 | 59 | 1010.4 |
| 20260508193821 | 26 | 325 | 0.0 | 6.4 | 0.00 | 0.74 | 0.79 | 58 | 1010.1 |
| 20260508193721 | 26 | 291 | 1.6 | 6.4 | 0.00 | 0.74 | 0.79 | 58 | 1010.2 |
| 20260508193620 | 26 | 225 | 3.2 | 4.8 | 0.00 | 0.74 | 0.79 | 58 | 1010.0 |
| 20260508193520 | 26 | 215 | 1.6 | 4.8 | 0.00 | 0.74 | 0.79 | 58 | 1010.1 |
| 20260508193420 | 26 | 173 | 1.6 | 3.2 | 0.00 | 0.74 | 0.79 | 58 | 1010.1 |
| 20260508193321 | 26 | 38 | 0.0 | 3.2 | 0.00 | 0.74 | 0.79 | 58 | 1010.0 |
| 20260508193220 | 26 | 349 | 1.6 | 4.8 | 0.00 | 0.74 | 0.79 | 58 | 1010.2 |
| 20260508193120 | 26 | 53 | 3.2 | 3.2 | 0.00 | 0.74 | 0.79 | 58 | 1010.2 |
| 20260508192420 | 26 | 38 | 0.0 | 3.2 | 0.00 | 0.74 | 0.79 | 57 | 1010.3 |
| 20260508192320 | 26 | 213 | 3.2 | 3.2 | 0.00 | 0.74 | 0.79 | 57 | 1010.0 |
| 20260508192020 | 26 | 242 | 0.0 | 4.8 | 0.00 | 0.74 | 0.79 | 56 | 1010.0 |
| 20260508191921 | 26 | 96 | 1.6 | 4.8 | 0.00 | 0.74 | 0.79 | 56 | 1010.2 |
| 20260508191721 | 26 | 312 | 0.0 | 3.2 | 0.00 | 0.74 | 0.79 | 56 | 1010.0 |
| 20260508191621 | 26 | 124 | 3.2 | 3.2 | 0.00 | 0.74 | 0.79 | 56 | 1010.1 |
| 20260508191521 | 26 | 202 | 1.6 | 3.2 | 0.00 | 0.74 | 0.79 | 56 | 1010.2 |
| 20260508191420 | 26 | 338 | 3.2 | 3.2 | 0.00 | 0.74 | 0.79 | 56 | 1010.1 |
| 20260508191321 | 26 | 284 | 0.0 | 4.8 | 0.00 | 0.74 | 0.79 | 55 | 1010.0 |
| 20260508191220 | 26 | 65 | 3.2 | 4.8 | 0.00 | 0.74 | 0.79 | 55 | 1010.3 |
| 20260508190720 | 27 | 32 | 0.0 | 8.0 | 0.00 | 0.74 | 0.79 | 55 | 1010.5 |
| 20260508190621 | 27 | 211 | 3.2 | 6.4 | 0.00 | 0.74 | 0.79 | 55 | 1010.3 |
| 20260508190520 | 27 | 239 | 3.2 | 6.4 | 0.00 | 0.74 | 0.79 | 55 | 1010.3 |
| 20260508190421 | 27 | 149 | 3.2 | 3.2 | 0.00 | 0.74 | 0.79 | 55 | 1010.3 |
| 20260508190120 | 27 | 119 | 3.2 | 3.2 | 0.00 | 0.74 | 0.79 | 55 | 1010.1 |
| 20260508185820 | 27 | 77 | 0.0 | 6.4 | 0.00 | 0.74 | 0.79 | 54 | 1010.2 |
| 20260508185721 | 27 | 217 | 3.2 | 6.4 | 0.00 | 0.74 | 0.79 | 55 | 1010.3 |
| 20260508185220 | 26 | 239 | 3.2 | 6.4 | 0.00 | 0.74 | 0.79 | 56 | 1010.3 |
| 20260508185120 | 26 | 291 | 0.0 | 3.2 | 0.00 | 0.74 | 0.79 | 56 | 1010.3 |
| 20260508185020 | 26 | 223 | 3.2 | 4.8 | 0.00 | 0.74 | 0.79 | 56 | 1010.2 |
| 20260508184720 | 26 | 308 | 3.2 | 4.8 | 0.00 | 0.74 | 0.79 | 56 | 1010.3 |
| 20260508184620 | 26 | 247 | 4.8 | 4.8 | 0.00 | 0.74 | 0.79 | 56 | 1010.3 |
| 20260508184520 | 26 | 254 | 1.6 | 4.8 | 0.00 | 0.74 | 0.79 | 56 | 1010.3 |
| 20260508184419 | 26 | 198 | 3.2 | 4.8 | 0.00 | 0.74 | 0.79 | 56 | 1010.4 |
| 20260508184320 | 26 | 217 | 1.6 | 3.2 | 0.00 | 0.74 | 0.79 | 56 | 1010.3 |
| 20260508184120 | 26 | 220 | 3.2 | 3.2 | 0.00 | 0.74 | 0.79 | 55 | 1010.4 |
| 20260508184020 | 26 | 237 | 1.6 | 3.2 | 0.00 | 0.74 | 0.79 | 55 | 1010.2 |
| 20260508183920 | 26 | 282 | 1.6 | 3.2 | 0.00 | 0.74 | 0.79 | 55 | 1010.3 |
| 20260508183720 | 26 | 163 | 0.0 | 6.4 | 0.00 | 0.74 | 0.79 | 54 | 1010.4 |
| 20260508183620 | 26 | 221 | 3.2 | 8.0 | 0.00 | 0.74 | 0.79 | 54 | 1010.5 |
| 20260508183020 | 26 | 210 | 0.0 | 4.8 | 0.00 | 0.74 | 0.79 | 56 | 1010.6 |
| 20260508182720 | 26 | 251 | 1.6 | 3.2 | 0.00 | 0.74 | 0.79 | 56 | 1010.6 |
| 20260508182521 | 26 | 117 | 0.0 | 6.4 | 0.00 | 0.74 | 0.79 | 56 | 1010.7 |
| 20260508182420 | 26 | 291 | 3.2 | 6.4 | 0.00 | 0.74 | 0.79 | 56 | 1010.7 |
| 20260508182320 | 26 | 286 | 1.6 | 3.2 | 0.00 | 0.74 | 0.79 | 57 | 1010.7 |
| 20260508182220 | 26 | 228 | 0.0 | 4.8 | 0.00 | 0.74 | 0.79 | 56 | 1011.0 |
| 20260508182121 | 26 | 263 | 3.2 | 4.8 | 0.00 | 0.74 | 0.79 | 55 | 1011.0 |
| 20260508182021 | 26 | 203 | 0.0 | 6.4 | 0.00 | 0.74 | 0.79 | 55 | 1010.7 |
| 20260508181720 | 26 | 341 | 1.6 | 4.8 | 0.00 | 0.74 | 0.79 | 55 | 1011.0 |
| 20260508181620 | 26 | 302 | 1.6 | 3.2 | 0.00 | 0.74 | 0.79 | 55 | 1011.0 |
| 20260508181520 | 26 | 335 | 0.0 | 4.8 | 0.00 | 0.74 | 0.79 | 55 | 1010.9 |
| 20260508181420 | 26 | 19 | 3.2 | 4.8 | 0.00 | 0.74 | 0.79 | 55 | 1010.8 |
| 20260508181220 | 26 | 99 | 0.0 | 4.8 | 0.00 | 0.74 | 0.79 | 55 | 1010.9 |
| 20260508181121 | 26 | 296 | 3.2 | 4.8 | 0.00 | 0.74 | 0.79 | 55 | 1011.1 |
| 20260508181020 | 26 | 203 | 4.8 | 4.8 | 0.00 | 0.74 | 0.79 | 56 | 1011.1 |
| 20260508180721 | 26 | 220 | 3.2 | 4.8 | 0.00 | 0.74 | 0.79 | 57 | 1011.2 |
| 20260508180420 | 25 | 222 | 6.4 | 6.4 | 0.00 | 0.74 | 0.79 | 57 | 1011.2 |
| 20260508180320 | 25 | 226 | 3.2 | 6.4 | 0.00 | 0.74 | 0.79 | 57 | 1011.3 |
| 20260508180220 | 25 | 205 | 3.2 | 6.4 | 0.00 | 0.74 | 0.79 | 56 | 1011.4 |
| 20260508180120 | 25 | 240 | 0.0 | 4.8 | 0.00 | 0.74 | 0.79 | 56 | 1011.2 |
| 20260508180020 | 25 | 217 | 3.2 | 4.8 | 0.00 | 0.74 | 0.79 | 57 | 1011.3 |
| 20260508175720 | 25 | 156 | 1.6 | 4.8 | 0.00 | 0.74 | 0.79 | 57 | 1011.3 |
| 20260508175420 | 25 | 41 | 3.2 | 6.4 | 0.00 | 0.74 | 0.79 | 58 | 1011.5 |
| 20260508175320 | 25 | 223 | 3.2 | 8.0 | 0.00 | 0.74 | 0.79 | 57 | 1011.5 |
| 20260508175120 | 25 | 134 | 3.2 | 9.7 | 0.00 | 0.74 | 0.79 | 57 | 1011.3 |
| 20260508175020 | 25 | 256 | 1.6 | 4.8 | 0.00 | 0.74 | 0.79 | 57 | 1011.4 |
| 20260508174721 | 25 | 27 | 4.8 | 6.4 | 0.00 | 0.74 | 0.79 | 57 | 1011.6 |
| 20260508174620 | 24 | 176 | 0.0 | 6.4 | 0.00 | 0.74 | 0.79 | 58 | 1011.2 |
| 20260508174520 | 24 | 52 | 4.8 | 4.8 | 0.00 | 0.74 | 0.79 | 58 | 1011.6 |
| 20260508174420 | 24 | 41 | 0.0 | 4.8 | 0.00 | 0.74 | 0.79 | 58 | 1011.5 |
| 20260508174320 | 24 | 197 | 1.6 | 4.8 | 0.00 | 0.74 | 0.79 | 58 | 1011.6 |
| 20260508174120 | 24 | 324 | 0.0 | 8.0 | 0.00 | 0.74 | 0.79 | 57 | 1011.5 |
| 20260508174021 | 24 | 72 | 1.6 | 8.0 | 0.00 | 0.74 | 0.79 | 56 | 1011.4 |
| 20260508173923 | 25 | 68 | 3.2 | 8.0 | 0.00 | 0.74 | 0.79 | 56 | 1011.3 |
| 20260508173820 | 25 | 235 | 0.0 | 8.0 | 0.00 | 0.74 | 0.79 | 57 | 1011.4 |
| 20260508173721 | 25 | 77 | 4.8 | 6.4 | 0.00 | 0.74 | 0.79 | 58 | 1011.7 |
| 20260508172620 | 24 | 168 | 0.0 | 4.8 | 0.00 | 0.74 | 0.79 | 59 | 1011.8 |
| 20260508172521 | 24 | 204 | 3.2 | 6.4 | 0.00 | 0.74 | 0.79 | 59 | 1011.6 |
| 20260508172120 | 24 | 256 | 0.0 | 4.8 | 0.00 | 0.74 | 0.79 | 58 | 1011.9 |
| 20260508172020 | 24 | 287 | 1.6 | 4.8 | 0.00 | 0.74 | 0.79 | 58 | 1012.0 |
| 20260508171921 | 24 | 63 | 1.6 | 4.8 | 0.00 | 0.74 | 0.79 | 59 | 1012.0 |
| 20260508171720 | 24 | 209 | 0.0 | 6.4 | 0.00 | 0.74 | 0.79 | 59 | 1011.9 |
| 20260508171621 | 24 | 209 | 3.2 | 6.4 | 0.00 | 0.74 | 0.79 | 59 | 1012.1 |
| 20260508171521 | 24 | 246 | 0.0 | 4.8 | 0.00 | 0.74 | 0.79 | 59 | 1012.2 |
| 20260508171320 | 23 | 208 | 1.6 | 4.8 | 0.00 | 0.74 | 0.79 | 59 | 1012.2 |
| 20260508171220 | 23 | 201 | 3.2 | 4.8 | 0.00 | 0.74 | 0.79 | 60 | 1012.2 |
| 20260508171120 | 23 | 320 | 3.2 | 8.0 | 0.00 | 0.74 | 0.79 | 59 | 1012.1 |
| 20260508171020 | 23 | 102 | 4.8 | 8.0 | 0.00 | 0.74 | 0.79 | 59 | 1012.2 |
| 20260508170721 | 23 | 218 | 3.2 | 8.0 | 0.00 | 0.74 | 0.79 | 60 | 1012.5 |
| 20260508170620 | 23 | 83 | 1.6 | 8.0 | 0.00 | 0.74 | 0.79 | 60 | 1012.6 |
| 20260508170520 | 23 | 102 | 0.0 | 3.2 | 0.00 | 0.74 | 0.79 | 61 | 1012.6 |
| 20260508170420 | 23 | 281 | 3.2 | 3.2 | 0.00 | 0.74 | 0.79 | 61 | 1012.6 |
| 20260508170320 | 23 | 91 | 1.6 | 3.2 | 0.00 | 0.74 | 0.79 | 61 | 1012.6 |
| 20260508170219 | 23 | 277 | 1.6 | 1.6 | 0.00 | 0.74 | 0.79 | 62 | 1012.8 |
| 20260508165920 | 22 | 269 | 0.0 | 4.8 | 0.00 | 0.74 | 0.79 | 62 | 1012.8 |
| 20260508165720 | 22 | 159 | 1.6 | 3.2 | 0.00 | 0.74 | 0.79 | 61 | 1012.8 |
| 20260508165619 | 22 | 213 | 0.0 | 6.4 | 0.00 | 0.74 | 0.79 | 61 | 1012.9 |
| 20260508165520 | 22 | 200 | 3.2 | 9.7 | 0.00 | 0.74 | 0.79 | 61 | 1012.9 |
| 20260508165420 | 22 | 99 | 6.4 | 9.7 | 0.00 | 0.74 | 0.79 | 60 | 1012.8 |
| 20260508165320 | 23 | 146 | 0.0 | 8.0 | 0.00 | 0.74 | 0.79 | 59 | 1012.9 |
| 20260508165219 | 23 | 124 | 4.8 | 9.7 | 0.00 | 0.74 | 0.79 | 59 | 1012.9 |
| 20260508164919 | 23 | 104 | 3.2 | 4.8 | 0.00 | 0.74 | 0.79 | 58 | 1012.9 |
| 20260508164820 | 23 | 36 | 3.2 | 4.8 | 0.00 | 0.74 | 0.79 | 58 | 1013.2 |
| 20260508164620 | 23 | 147 | 1.6 | 4.8 | 0.00 | 0.74 | 0.79 | 60 | 1013.1 |
| 20260508164519 | 23 | 59 | 0.0 | 3.2 | 0.00 | 0.74 | 0.79 | 61 | 1013.1 |
| 20260508164420 | 23 | 325 | 1.6 | 3.2 | 0.00 | 0.74 | 0.79 | 61 | 1013.1 |
| 20260508164120 | 22 | 320 | 3.2 | 4.8 | 0.00 | 0.74 | 0.79 | 61 | 1013.2 |
| 20260508164020 | 22 | 49 | 3.2 | 4.8 | 0.00 | 0.74 | 0.79 | 61 | 1013.1 |
| 20260508163920 | 22 | 39 | 0.0 | 4.8 | 0.00 | 0.74 | 0.79 | 62 | 1013.2 |
| 20260508163620 | 22 | 213 | 1.6 | 4.8 | 0.00 | 0.74 | 0.79 | 63 | 1013.4 |
| 20260508163520 | 22 | 230 | 1.6 | 3.2 | 0.00 | 0.74 | 0.79 | 62 | 1013.2 |
| 20260508163320 | 22 | 94 | 3.2 | 3.2 | 0.00 | 0.74 | 0.79 | 63 | 1013.5 |
| 20260508163020 | 21 | 327 | 0.0 | 3.2 | 0.00 | 0.74 | 0.79 | 64 | 1013.5 |
| 20260508162921 | 21 | 45 | 1.6 | 4.8 | 0.00 | 0.74 | 0.79 | 63 | 1013.6 |
| 20260508162620 | 21 | 214 | 3.2 | 4.8 | 0.00 | 0.74 | 0.79 | 63 | 1013.6 |
| 20260508162520 | 21 | 75 | 3.2 | 4.8 | 0.00 | 0.74 | 0.79 | 63 | 1013.6 |
| 20260508162420 | 21 | 148 | 0.0 | 4.8 | 0.00 | 0.74 | 0.79 | 63 | 1013.6 |
| 20260508162321 | 21 | 79 | 4.8 | 4.8 | 0.00 | 0.74 | 0.79 | 64 | 1013.5 |
| 20260508162121 | 21 | 228 | 0.0 | 4.8 | 0.00 | 0.74 | 0.79 | 64 | 1013.7 |
| 20260508161920 | 21 | 105 | 3.2 | 4.8 | 0.00 | 0.74 | 0.79 | 64 | 1013.7 |
| 20260508161520 | 21 | 336 | 0.0 | 4.8 | 0.00 | 0.74 | 0.79 | 65 | 1013.8 |
| 20260508161321 | 21 | 236 | 1.6 | 4.8 | 0.00 | 0.74 | 0.79 | 66 | 1013.6 |
| 20260508161120 | 21 | 227 | 1.6 | 3.2 | 0.00 | 0.74 | 0.79 | 67 | 1013.8 |
| 20260508160721 | 20 | 195 | 0.0 | 4.8 | 0.00 | 0.74 | 0.79 | 66 | 1013.8 |
| 20260508160620 | 20 | 242 | 1.6 | 4.8 | 0.00 | 0.74 | 0.79 | 66 | 1013.8 |
| 20260508155719 | 20 | 44 | 0.0 | 8.0 | 0.00 | 0.74 | 0.79 | 66 | 1013.9 |
| 20260508155619 | 20 | 149 | 1.6 | 3.2 | 0.00 | 0.74 | 0.79 | 67 | 1013.9 |
| 20260508155520 | 20 | 62 | 1.6 | 3.2 | 0.00 | 0.74 | 0.79 | 67 | 1013.9 |
| 20260508155419 | 20 | 112 | 3.2 | 6.4 | 0.00 | 0.74 | 0.79 | 67 | 1014.1 |
| 20260508155119 | 20 | 92 | 0.0 | 3.2 | 0.00 | 0.74 | 0.79 | 68 | 1013.9 |
| 20260508155019 | 20 | 184 | 1.6 | 1.6 | 0.00 | 0.74 | 0.79 | 68 | 1014.0 |
| 20260508154519 | 20 | 67 | 3.2 | 3.2 | 0.00 | 0.74 | 0.79 | 66 | 1014.2 |
| 20260508154419 | 20 | 107 | 0.0 | 3.2 | 0.00 | 0.74 | 0.79 | 67 | 1014.3 |
| 20260508154319 | 20 | 66 | 1.6 | 3.2 | 0.00 | 0.74 | 0.79 | 67 | 1014.4 |
| 20260508153920 | 20 | 40 | 0.0 | 9.7 | 0.00 | 0.74 | 0.79 | 66 | 1014.2 |
| 20260508153820 | 20 | 135 | 3.2 | 9.7 | 0.00 | 0.74 | 0.79 | 66 | 1014.2 |
| 20260508153720 | 20 | 103 | 0.0 | 6.4 | 0.00 | 0.74 | 0.79 | 67 | 1014.2 |
| 20260508153620 | 20 | 155 | 3.2 | 6.4 | 0.00 | 0.74 | 0.79 | 68 | 1014.2 |
| 20260508153520 | 20 | 33 | 0.0 | 3.2 | 0.00 | 0.74 | 0.79 | 69 | 1014.2 |
| 20260508153420 | 20 | 139 | 1.6 | 1.6 | 0.00 | 0.74 | 0.79 | 68 | 1014.2 |
| 20260508152820 | 20 | 134 | 0.0 | 3.2 | 0.00 | 0.74 | 0.79 | 67 | 1014.2 |
| 20260508152720 | 20 | 174 | 1.6 | 3.2 | 0.00 | 0.74 | 0.79 | 67 | 1014.3 |
| 20260508152420 | 20 | 188 | 0.0 | 4.8 | 0.00 | 0.74 | 0.79 | 68 | 1014.1 |
| 20260508152320 | 20 | 193 | 1.6 | 3.2 | 0.00 | 0.74 | 0.79 | 68 | 1014.0 |
| 20260508152220 | 20 | 190 | 0.0 | 6.4 | 0.00 | 0.74 | 0.79 | 68 | 1014.0 |
| 20260508152121 | 20 | 33 | 3.2 | 6.4 | 0.00 | 0.74 | 0.79 | 68 | 1014.2 |
| 20260508151921 | 20 | 199 | 0.0 | 4.8 | 0.00 | 0.74 | 0.79 | 68 | 1014.2 |
| 20260508151720 | 20 | 219 | 1.6 | 3.2 | 0.00 | 0.74 | 0.79 | 68 | 1014.2 |
| 20260508151520 | 20 | 155 | 0.0 | 1.6 | 0.00 | 0.74 | 0.79 | 69 | 1014.3 |
| 20260508151420 | 20 | 79 | 1.6 | 1.6 | 0.00 | 0.74 | 0.79 | 69 | 1014.2 |
| 20260508151220 | 20 | 127 | 0.0 | 4.8 | 0.00 | 0.74 | 0.79 | 69 | 1014.0 |
| 20260508151121 | 20 | 112 | 1.6 | 4.8 | 0.00 | 0.74 | 0.79 | 69 | 1014.2 |
| 20260508151020 | 20 | 126 | 0.0 | 3.2 | 0.00 | 0.74 | 0.79 | 70 | 1014.3 |
| 20260508150920 | 20 | 188 | 1.6 | 3.2 | 0.00 | 0.74 | 0.79 | 70 | 1014.2 |
| 20260508150420 | 20 | 171 | 0.0 | 3.2 | 0.00 | 0.74 | 0.79 | 70 | 1014.3 |
| 20260508150320 | 20 | 76 | 1.6 | 3.2 | 0.00 | 0.74 | 0.79 | 69 | 1014.3 |
| 20260508150119 | 20 | 208 | 0.0 | 3.2 | 0.00 | 0.74 | 0.79 | 69 | 1014.3 |
| 20260508150020 | 20 | 180 | 3.2 | 3.2 | 0.00 | 0.74 | 0.79 | 69 | 1014.3 |
| 20260508145919 | 20 | 120 | 1.6 | 4.8 | 0.00 | 0.74 | 0.79 | 69 | 1014.2 |
| 20260508145820 | 20 | 47 | 0.0 | 4.8 | 0.00 | 0.74 | 0.79 | 68 | 1014.4 |
| 20260508145719 | 20 | 58 | 1.6 | 3.2 | 0.00 | 0.74 | 0.79 | 70 | 1014.3 |
| 20260508144719 | 20 | 59 | 0.0 | 3.2 | 0.00 | 0.74 | 0.79 | 72 | 1014.4 |
| 20260508144620 | 20 | 285 | 3.2 | 3.2 | 0.00 | 0.74 | 0.79 | 72 | 1014.7 |
| 20260508143420 | 19 | 74 | 3.2 | 6.4 | 0.00 | 0.74 | 0.79 | 74 | 1014.3 |
| 20260508143120 | 19 | 51 | 1.6 | 4.8 | 0.00 | 0.74 | 0.79 | 74 | 1014.4 |
| 20260508143020 | 19 | 100 | 1.6 | 3.2 | 0.00 | 0.74 | 0.79 | 74 | 1014.4 |
| 20260508142720 | 19 | 82 | 1.6 | 6.4 | 0.00 | 0.74 | 0.79 | 75 | 1014.5 |
| 20260508142521 | 18 | 87 | 0.0 | 4.8 | 0.00 | 0.74 | 0.79 | 76 | 1014.5 |
| 20260508142421 | 18 | 82 | 1.6 | 3.2 | 0.00 | 0.74 | 0.79 | 78 | 1014.8 |
| 20260508142320 | 18 | 89 | 3.2 | 3.2 | 0.00 | 0.74 | 0.79 | 78 | 1014.8 |
| 20260508142120 | 18 | 202 | 0.0 | 4.8 | 0.00 | 0.74 | 0.79 | 77 | 1014.6 |
| 20260508142020 | 18 | 62 | 3.2 | 6.4 | 0.00 | 0.74 | 0.79 | 77 | 1014.6 |
| 20260508141920 | 18 | 110 | 6.4 | 6.4 | 0.00 | 0.74 | 0.79 | 78 | 1014.7 |
| 20260508141821 | 18 | 48 | 0.0 | 3.2 | 0.00 | 0.74 | 0.79 | 78 | 1014.8 |
| 20260508141721 | 18 | 115 | 1.6 | 3.2 | 0.00 | 0.74 | 0.79 | 79 | 1014.7 |
| 20260508141520 | 18 | 109 | 0.0 | 3.2 | 0.00 | 0.74 | 0.79 | 78 | 1014.7 |
| 20260508141420 | 18 | 4 | 1.6 | 3.2 | 0.00 | 0.74 | 0.79 | 79 | 1014.8 |
| 20260508141320 | 18 | 117 | 3.2 | 4.8 | 0.00 | 0.74 | 0.79 | 79 | 1014.9 |
| 20260508141221 | 18 | 46 | 1.6 | 4.8 | 0.00 | 0.74 | 0.79 | 80 | 1014.7 |
| 20260508140920 | 17 | 188 | 0.0 | 4.8 | 0.00 | 0.74 | 0.79 | 81 | 1014.7 |
| 20260508140820 | 17 | 57 | 1.6 | 8.0 | 0.00 | 0.74 | 0.79 | 81 | 1014.8 |
| 20260508140720 | 17 | 86 | 0.0 | 8.0 | 0.00 | 0.74 | 0.79 | 83 | 1014.8 |
| 20260508140621 | 17 | 166 | 1.6 | 4.8 | 0.00 | 0.74 | 0.79 | 84 | 1014.6 |
| 20260508140520 | 17 | 52 | 1.6 | 6.4 | 0.00 | 0.74 | 0.79 | 84 | 1015.0 |
| 20260508140420 | 17 | 169 | 3.2 | 6.4 | 0.00 | 0.74 | 0.79 | 84 | 1014.7 |
| 20260508140319 | 17 | 35 | 0.0 | 8.0 | 0.00 | 0.74 | 0.79 | 84 | 1014.8 |
| 20260508140219 | 17 | 2 | 1.6 | 8.0 | 0.00 | 0.74 | 0.79 | 83 | 1014.7 |
| 20260508140120 | 17 | 80 | 3.2 | 6.4 | 0.00 | 0.74 | 0.79 | 83 | 1014.7 |
| 20260508140019 | 17 | 116 | 4.8 | 4.8 | 0.00 | 0.74 | 0.79 | 84 | 1014.9 |
| 20260508135820 | 17 | 166 | 0.0 | 6.4 | 0.00 | 0.74 | 0.79 | 84 | 1015.1 |
| 20260508135719 | 17 | 106 | 4.8 | 6.4 | 0.00 | 0.74 | 0.79 | 84 | 1015.0 |
| 20260508135620 | 17 | 163 | 3.2 | 4.8 | 0.00 | 0.74 | 0.79 | 85 | 1014.7 |
| 20260508135519 | 17 | 280 | 0.0 | 6.4 | 0.00 | 0.74 | 0.79 | 85 | 1014.9 |
| 20260508135219 | 17 | 200 | 3.2 | 6.4 | 0.00 | 0.74 | 0.79 | 83 | 1014.5 |
| 20260508135120 | 17 | 252 | 3.2 | 6.4 | 0.00 | 0.74 | 0.79 | 83 | 1014.5 |
| 20260508135019 | 17 | 215 | 4.8 | 6.4 | 0.00 | 0.74 | 0.79 | 84 | 1014.5 |
| 20260508134919 | 17 | 137 | 4.8 | 6.4 | 0.00 | 0.74 | 0.79 | 84 | 1014.6 |
| 20260508134821 | 17 | 119 | 1.6 | 6.4 | 0.00 | 0.74 | 0.79 | 85 | 1014.7 |
| 20260508134619 | 17 | 29 | 4.8 | 8.0 | 0.00 | 0.74 | 0.79 | 86 | 1014.8 |
| 20260508134519 | 17 | 171 | 1.6 | 8.0 | 0.00 | 0.74 | 0.79 | 86 | 1014.9 |
| 20260508134419 | 17 | 36 | 0.0 | 6.4 | 0.00 | 0.74 | 0.79 | 86 | 1014.9 |
| 20260508134319 | 17 | 11 | 3.2 | 6.4 | 0.00 | 0.74 | 0.79 | 87 | 1014.8 |
| 20260508134220 | 17 | 72 | 3.2 | 6.4 | 0.00 | 0.74 | 0.79 | 88 | 1014.7 |
| 20260508134120 | 17 | 99 | 1.6 | 4.8 | 0.00 | 0.74 | 0.79 | 89 | 1014.9 |
| 20260508133720 | 16 | 113 | 3.2 | 6.4 | 0.03 | 0.74 | 0.79 | 88 | 1014.9 |
| 20260508133620 | 16 | 106 | 3.2 | 6.4 | 0.03 | 0.74 | 0.79 | 88 | 1014.9 |
| 20260508133520 | 16 | 125 | 3.2 | 4.8 | 0.03 | 0.74 | 0.79 | 88 | 1014.7 |
| 20260508133420 | 16 | 31 | 1.6 | 6.4 | 0.08 | 0.74 | 0.79 | 88 | 1014.8 |
| 20260508133320 | 16 | 79 | 3.2 | 6.4 | 0.08 | 0.74 | 0.79 | 88 | 1014.8 |
| 20260508133220 | 16 | 140 | 4.8 | 4.8 | 0.08 | 0.74 | 0.79 | 88 | 1014.8 |
| 20260508132720 | 16 | 94 | 1.6 | 6.4 | 0.08 | 0.74 | 0.79 | 90 | 1014.6 |
| 20260508132620 | 16 | 96 | 3.2 | 6.4 | 0.08 | 0.74 | 0.79 | 91 | 1014.9 |
| 20260508132520 | 16 | 344 | 1.6 | 4.8 | 0.08 | 0.74 | 0.79 | 91 | 1015.0 |
| 20260508132420 | 16 | 114 | 1.6 | 6.4 | 0.10 | 0.74 | 0.79 | 92 | 1015.1 |
| 20260508132320 | 16 | 132 | 6.4 | 6.4 | 0.10 | 0.74 | 0.79 | 92 | 1015.2 |
| 20260508131920 | 16 | 95 | 1.6 | 4.8 | 0.10 | 0.74 | 0.79 | 92 | 1015.0 |
| 20260508131820 | 16 | 98 | 3.2 | 4.8 | 0.10 | 0.74 | 0.79 | 92 | 1015.0 |
| 20260508131420 | 15 | 25 | 3.2 | 6.4 | 0.10 | 0.74 | 0.79 | 92 | 1015.1 |
| 20260508130920 | 15 | 3 | 4.8 | 6.4 | 0.10 | 0.74 | 0.79 | 92 | 1014.9 |
| 20260508130820 | 15 | 0 | 3.2 | 4.8 | 0.10 | 0.74 | 0.79 | 92 | 1014.9 |
| 20260508130620 | 15 | 15 | 3.2 | 6.4 | 0.10 | 0.74 | 0.79 | 92 | 1014.9 |
| 20260508130520 | 15 | 45 | 0.0 | 6.4 | 0.10 | 0.74 | 0.79 | 92 | 1014.8 |
| 20260508130419 | 15 | 7 | 3.2 | 6.4 | 0.10 | 0.74 | 0.79 | 92 | 1014.9 |
| 20260508130219 | 15 | 59 | 4.8 | 4.8 | 0.10 | 0.74 | 0.79 | 92 | 1014.9 |
| 20260508125820 | 15 | 156 | 1.6 | 4.8 | 0.10 | 0.74 | 0.79 | 92 | 1014.9 |
| 20260508125720 | 15 | 134 | 3.2 | 6.4 | 0.10 | 0.74 | 0.79 | 92 | 1014.9 |
| 20260508125620 | 15 | 64 | 3.2 | 6.4 | 0.10 | 0.74 | 0.79 | 92 | 1015.1 |
| 20260508125519 | 15 | 91 | 3.2 | 6.4 | 0.10 | 0.74 | 0.79 | 92 | 1014.9 |
| 20260508125219 | 15 | 73 | 3.2 | 4.8 | 0.10 | 0.71 | 0.79 | 92 | 1015.2 |
| 20260508125119 | 15 | 100 | 0.0 | 4.8 | 0.10 | 0.71 | 0.76 | 92 | 1015.2 |
| 20260508125019 | 15 | 100 | 3.2 | 3.2 | 0.10 | 0.71 | 0.76 | 92 | 1015.5 |
| 20260508124419 | 15 | 247 | 0.0 | 3.2 | 0.10 | 0.71 | 0.76 | 92 | 1015.4 |
| 20260508124320 | 15 | 155 | 1.6 | 3.2 | 0.10 | 0.71 | 0.76 | 92 | 1015.3 |
| 20260508123819 | 15 | 269 | 0.0 | 6.4 | 0.08 | 0.71 | 0.76 | 92 | 1014.8 |
| 20260508123719 | 15 | 82 | 3.2 | 6.4 | 0.08 | 0.69 | 0.76 | 92 | 1015.1 |
| 20260508123620 | 15 | 84 | 1.6 | 6.4 | 0.05 | 0.66 | 0.74 | 92 | 1014.9 |
| 20260508123520 | 15 | 34 | 3.2 | 4.8 | 0.03 | 0.66 | 0.71 | 92 | 1015.1 |
| 20260508123419 | 15 | 74 | 1.6 | 3.2 | 0.05 | 0.66 | 0.71 | 92 | 1015.3 |
| 20260508123220 | 15 | 349 | 0.0 | 3.2 | 0.03 | 0.66 | 0.71 | 92 | 1015.4 |
| 20260508123120 | 15 | 81 | 3.2 | 4.8 | 0.03 | 0.66 | 0.71 | 92 | 1015.5 |
| 20260508123020 | 15 | 59 | 0.0 | 4.8 | 0.03 | 0.66 | 0.71 | 92 | 1015.6 |
| 20260508122919 | 15 | 67 | 1.6 | 4.8 | 0.03 | 0.64 | 0.71 | 92 | 1015.4 |
| 20260508122819 | 15 | 9 | 3.2 | 6.4 | 0.03 | 0.64 | 0.69 | 92 | 1015.5 |
| 20260508122720 | 15 | 31 | 3.2 | 6.4 | 0.03 | 0.64 | 0.69 | 92 | 1015.7 |
| 20260508122120 | 15 | 49 | 0.0 | 4.8 | 0.03 | 0.64 | 0.69 | 91 | 1015.1 |
| 20260508122019 | 15 | 69 | 1.6 | 4.8 | 0.03 | 0.64 | 0.69 | 91 | 1015.1 |
| 20260508121820 | 15 | 165 | 1.6 | 4.8 | 0.03 | 0.64 | 0.69 | 91 | 1015.2 |
| 20260508121720 | 15 | 114 | 3.2 | 4.8 | 0.03 | 0.64 | 0.69 | 91 | 1015.1 |
| 20260508121420 | 15 | 97 | 3.2 | 4.8 | 0.03 | 0.64 | 0.69 | 91 | 1015.2 |
| 20260508121319 | 15 | 295 | 3.2 | 3.2 | 0.03 | 0.64 | 0.69 | 92 | 1015.3 |
| 20260508120719 | 15 | 73 | 3.2 | 4.8 | 0.03 | 0.64 | 0.69 | 92 | 1014.9 |
| 20260508120620 | 15 | 101 | 3.2 | 4.8 | 0.03 | 0.64 | 0.69 | 92 | 1015.0 |
| 20260508120520 | 15 | 99 | 0.0 | 4.8 | 0.03 | 0.64 | 0.69 | 92 | 1015.3 |
| 20260508120419 | 15 | 130 | 3.2 | 4.8 | 0.13 | 0.64 | 0.69 | 92 | 1014.8 |
| 20260508120320 | 15 | 158 | 3.2 | 4.8 | 0.13 | 0.64 | 0.69 | 92 | 1015.2 |
| 20260508120219 | 15 | 123 | 1.6 | 4.8 | 0.13 | 0.64 | 0.69 | 92 | 1015.1 |
| 20260508120119 | 15 | 133 | 0.0 | 4.8 | 0.13 | 0.64 | 0.69 | 92 | 1015.2 |
| 20260508115820 | 15 | 77 | 4.8 | 6.4 | 0.18 | 0.64 | 0.69 | 93 | 1014.9 |
| 20260508115720 | 15 | 47 | 3.2 | 6.4 | 0.18 | 0.64 | 0.69 | 93 | 1014.9 |
| 20260508115420 | 15 | 324 | 0.0 | 6.4 | 0.18 | 0.64 | 0.69 | 93 | 1015.1 |
| 20260508115319 | 15 | 225 | 3.2 | 3.2 | 0.18 | 0.64 | 0.69 | 93 | 1015.3 |
| 20260508115219 | 15 | 29 | 0.0 | 6.4 | 0.18 | 0.64 | 0.69 | 93 | 1015.1 |
| 20260508115119 | 15 | 146 | 3.2 | 6.4 | 0.18 | 0.64 | 0.69 | 93 | 1015.0 |
| 20260508115019 | 15 | 64 | 0.0 | 4.8 | 0.18 | 0.64 | 0.69 | 94 | 1015.2 |
| 20260508114919 | 15 | 355 | 1.6 | 4.8 | 0.20 | 0.64 | 0.69 | 94 | 1015.3 |
| 20260508114820 | 15 | 352 | 3.2 | 4.8 | 0.20 | 0.64 | 0.69 | 94 | 1015.3 |
| 20260508114420 | 15 | 165 | 0.0 | 6.4 | 0.20 | 0.64 | 0.69 | 94 | 1015.5 |
| 20260508114319 | 15 | 182 | 1.6 | 6.4 | 0.20 | 0.64 | 0.69 | 94 | 1015.4 |
| 20260508114219 | 15 | 190 | 0.0 | 4.8 | 0.20 | 0.64 | 0.69 | 95 | 1015.0 |
| 20260508114120 | 15 | 182 | 3.2 | 6.4 | 0.20 | 0.64 | 0.69 | 95 | 1015.0 |
| 20260508114019 | 15 | 119 | 1.6 | 6.4 | 0.20 | 0.64 | 0.69 | 95 | 1015.0 |
| 20260508113819 | 15 | 2 | 1.6 | 6.4 | 0.20 | 0.64 | 0.69 | 95 | 1014.9 |
| 20260508113719 | 15 | 303 | 3.2 | 6.4 | 0.20 | 0.64 | 0.69 | 95 | 1014.9 |
| 20260508113619 | 15 | 89 | 1.6 | 9.7 | 0.20 | 0.61 | 0.69 | 95 | 1015.0 |
| 20260508113519 | 15 | 48 | 4.8 | 9.7 | 0.18 | 0.61 | 0.66 | 95 | 1015.1 |
| 20260508113420 | 15 | 59 | 1.6 | 6.4 | 0.18 | 0.61 | 0.66 | 95 | 1014.9 |
| 20260508113320 | 15 | 31 | 3.2 | 6.4 | 0.18 | 0.61 | 0.66 | 95 | 1015.0 |
| 20260508113220 | 15 | 130 | 3.2 | 6.4 | 0.18 | 0.61 | 0.66 | 95 | 1015.2 |
| 20260508113119 | 15 | 244 | 3.2 | 4.8 | 0.18 | 0.61 | 0.66 | 95 | 1015.0 |
| 20260508113019 | 15 | 133 | 1.6 | 4.8 | 0.18 | 0.61 | 0.66 | 95 | 1015.3 |
| 20260508112919 | 15 | 351 | 0.0 | 4.8 | 0.18 | 0.61 | 0.66 | 95 | 1015.0 |
| 20260508112820 | 15 | 155 | 3.2 | 6.4 | 0.18 | 0.61 | 0.66 | 95 | 1015.0 |
| 20260508112719 | 15 | 123 | 1.6 | 4.8 | 0.18 | 0.61 | 0.66 | 95 | 1015.0 |
| 20260508112619 | 15 | 63 | 3.2 | 6.4 | 0.18 | 0.61 | 0.66 | 95 | 1015.2 |
| 20260508112419 | 15 | 67 | 1.6 | 8.0 | 0.18 | 0.61 | 0.66 | 95 | 1015.0 |
| 20260508111219 | 15 | 337 | 4.8 | 6.4 | 0.20 | 0.61 | 0.66 | 95 | 1014.6 |
| 20260508110919 | 15 | 213 | 3.2 | 6.4 | 0.23 | 0.56 | 0.64 | 95 | 1014.6 |
| 20260508110619 | 15 | 80 | 3.2 | 6.4 | 0.18 | 0.53 | 0.58 | 95 | 1014.4 |
| 20260508110520 | 15 | 93 | 3.2 | 6.4 | 0.15 | 0.51 | 0.56 | 95 | 1014.7 |
| 20260508110221 | 15 | 71 | 1.6 | 6.4 | 0.15 | 0.48 | 0.53 | 94 | 1015.1 |
| 20260508110120 | 15 | 89 | 6.4 | 6.4 | 0.15 | 0.48 | 0.53 | 94 | 1015.0 |
| 20260508105621 | 15 | 99 | 3.2 | 6.4 | 0.10 | 0.46 | 0.51 | 94 | 1015.6 |
| 20260508104920 | 15 | 67 | 4.8 | 6.4 | 0.10 | 0.43 | 0.48 | 94 | 1016.0 |
| 20260508104820 | 15 | 337 | 1.6 | 6.4 | 0.10 | 0.43 | 0.48 | 94 | 1015.8 |
| 20260508104720 | 15 | 328 | 3.2 | 8.0 | 0.10 | 0.43 | 0.48 | 94 | 1015.8 |
| 20260508104620 | 15 | 343 | 3.2 | 8.0 | 0.10 | 0.43 | 0.48 | 94 | 1015.8 |
| 20260508104521 | 15 | 320 | 4.8 | 11.3 | 0.10 | 0.43 | 0.48 | 94 | 1015.6 |
| 20260508104420 | 16 | 296 | 9.7 | 11.3 | 0.10 | 0.43 | 0.48 | 94 | 1015.4 |
| 20260508104320 | 16 | 298 | 3.2 | 6.4 | 0.10 | 0.43 | 0.48 | 94 | 1015.2 |
| 20260508104220 | 15 | 213 | 3.2 | 4.8 | 0.10 | 0.43 | 0.48 | 94 | 1015.0 |
| 20260508104120 | 15 | 130 | 4.8 | 6.4 | 0.10 | 0.43 | 0.48 | 94 | 1015.0 |
| 20260508103821 | 15 | 103 | 4.8 | 4.8 | 0.10 | 0.43 | 0.48 | 93 | 1015.1 |
| 20260508103720 | 15 | 240 | 1.6 | 3.2 | 0.10 | 0.43 | 0.48 | 93 | 1015.3 |
| 20260508103221 | 15 | 105 | 0.0 | 8.0 | 0.10 | 0.43 | 0.48 | 93 | 1015.4 |
| 20260508102720 | 15 | 319 | 3.2 | 8.0 | 0.10 | 0.43 | 0.48 | 94 | 1015.2 |
| 20260508102620 | 15 | 273 | 6.4 | 8.0 | 0.10 | 0.43 | 0.48 | 93 | 1015.1 |
| 20260508102520 | 15 | 299 | 3.2 | 4.8 | 0.10 | 0.43 | 0.48 | 93 | 1014.8 |
| 20260508102420 | 15 | 306 | 1.6 | 4.8 | 0.10 | 0.43 | 0.48 | 93 | 1014.4 |
| 20260508102320 | 15 | 54 | 0.0 | 4.8 | 0.10 | 0.43 | 0.48 | 93 | 1014.5 |
| 20260508102220 | 15 | 221 | 3.2 | 4.8 | 0.10 | 0.43 | 0.48 | 93 | 1014.3 |
| 20260508101920 | 15 | 85 | 1.6 | 3.2 | 0.10 | 0.43 | 0.48 | 93 | 1014.3 |
| 20260508101720 | 15 | 149 | 0.0 | 3.2 | 0.10 | 0.43 | 0.48 | 93 | 1014.3 |
| 20260508101619 | 15 | 117 | 1.6 | 3.2 | 0.08 | 0.41 | 0.46 | 93 | 1014.5 |
| 20260508101020 | 15 | 316 | 0.0 | 3.2 | 0.03 | 0.36 | 0.41 | 94 | 1014.8 |
| 20260508100320 | 15 | 154 | 0.0 | 3.2 | 0.00 | 0.33 | 0.38 | 94 | 1014.0 |
| 20260508100220 | 15 | 155 | 1.6 | 3.2 | 0.00 | 0.33 | 0.38 | 94 | 1014.0 |
| 20260508093021 | 15 | 47 | 0.0 | 3.2 | 0.13 | 0.33 | 0.38 | 94 | 1014.2 |
| 20260508092920 | 15 | 73 | 1.6 | 1.6 | 0.13 | 0.33 | 0.38 | 94 | 1014.3 |
| 20260508091620 | 15 | 147 | 0.0 | 1.6 | 0.18 | 0.33 | 0.38 | 93 | 1014.6 |
| 20260508091321 | 15 | 76 | 3.2 | 3.2 | 0.23 | 0.33 | 0.38 | 94 | 1014.4 |
| 20260508091220 | 15 | 140 | 0.0 | 3.2 | 0.23 | 0.33 | 0.38 | 93 | 1014.4 |
| 20260508091120 | 15 | 50 | 1.6 | 1.6 | 0.23 | 0.33 | 0.38 | 93 | 1014.4 |
| 20260508083920 | 15 | 316 | 0.0 | 6.4 | 0.28 | 0.23 | 0.28 | 90 | 1015.4 |
| 20260508083820 | 15 | 303 | 4.8 | 6.4 | 0.28 | 0.23 | 0.28 | 90 | 1015.4 |
| 20260508083720 | 15 | 294 | 4.8 | 6.4 | 0.28 | 0.23 | 0.28 | 90 | 1015.2 |
| 20260508083620 | 15 | 294 | 3.2 | 6.4 | 0.28 | 0.23 | 0.28 | 90 | 1015.2 |
| 20260508083521 | 15 | 284 | 4.8 | 6.4 | 0.28 | 0.23 | 0.28 | 90 | 1015.1 |
| 20260508083420 | 15 | 294 | 4.8 | 6.4 | 0.28 | 0.23 | 0.28 | 90 | 1015.0 |
| 20260508083320 | 15 | 294 | 3.2 | 6.4 | 0.28 | 0.23 | 0.28 | 90 | 1014.8 |
| 20260508083121 | 15 | 298 | 3.2 | 4.8 | 0.28 | 0.23 | 0.28 | 90 | 1014.6 |
| 20260508083020 | 15 | 319 | 3.2 | 4.8 | 0.28 | 0.23 | 0.28 | 90 | 1014.3 |
| 20260508082820 | 15 | 89 | 0.0 | 6.4 | 0.28 | 0.20 | 0.28 | 90 | 1013.9 |
| 20260508082720 | 15 | 73 | 4.8 | 8.0 | 0.25 | 0.18 | 0.25 | 90 | 1013.8 |
| 20260508082620 | 15 | 14 | 0.0 | 8.0 | 0.23 | 0.18 | 0.23 | 90 | 1013.9 |
| 20260508082521 | 16 | 89 | 1.6 | 6.4 | 0.23 | 0.18 | 0.23 | 89 | 1014.2 |
| 20260508082020 | 16 | 88 | 1.6 | 3.2 | 0.23 | 0.15 | 0.23 | 89 | 1014.8 |
| 20260508081920 | 16 | 66 | 1.6 | 3.2 | 0.20 | 0.15 | 0.20 | 88 | 1014.7 |
| 20260508081521 | 16 | 32 | 0.0 | 3.2 | 0.18 | 0.13 | 0.18 | 86 | 1015.1 |
| 20260508081420 | 16 | 119 | 1.6 | 3.2 | 0.18 | 0.13 | 0.18 | 86 | 1015.3 |
| 20260508075820 | 17 | 353 | 0.0 | 4.8 | 0.05 | 0.00 | 0.05 | 77 | 1015.1 |
| 20260508075719 | 17 | 47 | 1.6 | 4.8 | 0.00 | 0.00 | 0.00 | 75 | 1015.3 |
| 20260508075621 | 17 | 98 | 3.2 | 4.8 | 0.00 | 0.00 | 0.00 | 74 | 1015.6 |
| 20260508075519 | 17 | 84 | 0.0 | 3.2 | 0.00 | 0.00 | 0.00 | 74 | 1015.6 |
| 20260508075420 | 17 | 94 | 3.2 | 3.2 | 0.00 | 0.00 | 0.00 | 74 | 1015.8 |
| 20260508074220 | 17 | 284 | 0.0 | 3.2 | 0.00 | 0.00 | 0.00 | 74 | 1016.1 |
| 20260508074120 | 17 | 277 | 1.6 | 1.6 | 0.00 | 0.00 | 0.00 | 74 | 1016.2 |
| 20260508073320 | 16 | 315 | 0.0 | 3.2 | 0.00 | 0.00 | 0.00 | 75 | 1016.3 |
| 20260508073220 | 16 | 279 | 1.6 | 3.2 | 0.00 | 0.00 | 0.00 | 75 | 1016.0 |
| 20260508073120 | 16 | 293 | 1.6 | 3.2 | 0.00 | 0.00 | 0.00 | 75 | 1015.8 |
| 20260508073021 | 16 | 300 | 1.6 | 3.2 | 0.00 | 0.00 | 0.00 | 75 | 1015.7 |
| 20260508072920 | 16 | 314 | 1.6 | 1.6 | 0.00 | 0.00 | 0.00 | 75 | 1015.5 |
| 20260508071520 | 16 | 92 | 3.2 | 3.2 | 0.00 | 0.00 | 0.00 | 76 | 1015.4 |
| 20260508065219 | 16 | 117 | 0.0 | 1.6 | 0.00 | 0.00 | 0.00 | 75 | 1015.4 |
| 20260508065119 | 16 | 121 | 1.6 | 1.6 | 0.00 | 0.00 | 0.00 | 75 | 1015.6 |
| 20260508064419 | 16 | 89 | 0.0 | 3.2 | 0.00 | 0.00 | 0.00 | 74 | 1015.7 |